Weather in Novaya Inya

Russia / Khabarovsk Krai     59°22′40″N   144°52′34″E
temp.,
°C
wind,
m/s
gust,
m/s
humid.,
%
clouds,
%
prec.,
mm/h
press.,
hPa
HPBL,
m
27 february, sat
sat2701:00−21nne22720 0.0 102320
04:00−22nne22690 0.0 102320
07:00−22nne22680 0.0 102420
10:00−18ene01659 0.0 1024105
13:00−16s116355 0.0 1024315
16:00−17s117727 0.0 1023143
19:00−22nne22800 0.0 102420
22:00−22nne22740 0.0 102320
28 february, sun
sun2801:00−22nne22730 0.0 102320
04:00−23ne22730 0.0 102120
07:00−23nne22710 0.0 102020
10:00−17nne22684 0.0 101994
13:00−15se116344 0.0 1017252
16:00−15nw117530 0.0 1015137
19:00−20ne227224 0.0 101520
22:00−18nne226759 0.0 101320
1 march, mon
mon101:00−18nne2267100 0.0 101220
04:00−18nne2264100 0.0 101120
07:00−17ne2263100 0.0 101020
10:00−14e0158100 0.0 1010116
13:00−13s2167100 0.0 1009314
16:00−14wsw1179100 0.0 1008196
19:00−16ne0185100 0.0 100920
22:00−16ene1179100 0.0 101020
2 march, tue
tue201:00−17ne1193100 0.1 101020
04:00−17ne1296100 0.3 101125
07:00−18ne2296100 0.3 101331
10:00−17ene2290100 0.6 1014212
13:00−16e2285100 0.3 1015377
16:00−16ene2287100 0.4 1015299
19:00−19ne2291100 0.1 101633
22:00−20ene1295100 0.3 101826
3 march, wed
wed301:00−21ese1198100 0.3 101728
04:00−22sse12100100 0.6 101757
07:00−24sse22100100 0.3 101672
10:00−23sse2395100 0.4 1016388
13:00−22s3290100 0.1 1014481
16:00−23sw1190100 0.2 1011315
19:00−27n129484 0.0 101019
22:00−28n227544 0.0 100720